| time (UTC) | temp C | wind direction | speed KPH | gust KPH | rain 1hr cm | rain 24hr cm | rain mn cm | humidity % | barometer mb |
| 20260509193229 | 22 | 329 | 9.7 | 14.5 | 0.00 | 0.00 | 0.00 | 44 | 1018.1 |
| 20260509192725 | 22 | 295 | 3.2 | 16.1 | 0.00 | 0.00 | 0.00 | 48 | 1017.9 |
| 20260509192220 | 21 | 315 | 1.6 | 8.0 | 0.00 | 0.00 | 0.00 | 48 | 1018.2 |
| 20260509191716 | 21 | 308 | 8.0 | 14.5 | 0.00 | 0.00 | 0.00 | 48 | 1018.4 |
| 20260509191213 | 21 | 321 | 4.8 | 8.0 | 0.00 | 0.00 | 0.00 | 46 | 1018.4 |
| 20260509190709 | 21 | 196 | 0.0 | 9.7 | 0.00 | 0.00 | 0.00 | 45 | 1018.6 |
| 20260509190206 | 22 | 330 | 4.8 | 8.0 | 0.00 | 0.00 | 0.00 | 46 | 1018.6 |
| 20260509185704 | 21 | 48 | 1.6 | 11.3 | 0.00 | 0.00 | 0.00 | 47 | 1018.8 |
| 20260509185159 | 21 | 54 | 9.7 | 9.7 | 0.00 | 0.00 | 0.00 | 45 | 1018.6 |
| 20260509184657 | 21 | 3 | 4.8 | 8.0 | 0.00 | 0.00 | 0.00 | 47 | 1018.7 |
| 20260509184154 | 21 | 60 | 1.6 | 4.8 | 0.00 | 0.00 | 0.00 | 44 | 1018.8 |
| 20260509183650 | 21 | 353 | 4.8 | 11.3 | 0.00 | 0.00 | 0.00 | 44 | 1019.1 |
| 20260509183146 | 21 | 351 | 3.2 | 8.0 | 0.00 | 0.00 | 0.00 | 45 | 1019.1 |
| 20260509182642 | 21 | 244 | 4.8 | 8.0 | 0.00 | 0.00 | 0.00 | 50 | 1019.1 |
| 20260509182139 | 21 | 7 | 4.8 | 6.4 | 0.00 | 0.00 | 0.00 | 46 | 1019.1 |
| 20260509181637 | 20 | 341 | 1.6 | 8.0 | 0.00 | 0.00 | 0.00 | 47 | 1018.9 |
| 20260509181135 | 20 | 330 | 4.8 | 11.3 | 0.00 | 0.00 | 0.00 | 47 | 1019.1 |
| 20260509180631 | 20 | 345 | 4.8 | 11.3 | 0.00 | 0.00 | 0.00 | 48 | 1019.5 |
| 20260509180127 | 20 | 341 | 8.0 | 9.7 | 0.00 | 0.00 | 0.00 | 48 | 1019.5 |
| 20260509175623 | 20 | 293 | 1.6 | 8.0 | 0.00 | 0.00 | 0.00 | 47 | 1019.3 |
| 20260509175120 | 21 | 29 | 3.2 | 6.4 | 0.00 | 0.00 | 0.00 | 48 | 1019.2 |
| 20260509174616 | 20 | 341 | 4.8 | 11.3 | 0.00 | 0.00 | 0.00 | 49 | 1019.1 |
| 20260509174111 | 21 | 261 | 1.6 | 8.0 | 0.00 | 0.00 | 0.00 | 48 | 1019.4 |
| 20260509173607 | 20 | 56 | 1.6 | 4.8 | 0.00 | 0.00 | 0.00 | 49 | 1019.2 |
| 20260509173103 | 20 | 349 | 3.2 | 8.0 | 0.00 | 0.00 | 0.00 | 48 | 1019.2 |
| 20260509172600 | 20 | 314 | 3.2 | 12.9 | 0.00 | 0.00 | 0.00 | 50 | 1019.4 |
| 20260509172056 | 20 | 344 | 3.2 | 11.3 | 0.00 | 0.00 | 0.00 | 49 | 1019.4 |
| 20260509171552 | 19 | 340 | 3.2 | 12.9 | 0.00 | 0.00 | 0.00 | 50 | 1019.4 |
| 20260509171048 | 20 | 336 | 4.8 | 11.3 | 0.00 | 0.00 | 0.00 | 49 | 1019.4 |
| 20260509170544 | 20 | 341 | 3.2 | 4.8 | 0.00 | 0.00 | 0.00 | 51 | 1019.5 |
| 20260509170041 | 20 | 315 | 3.2 | 8.0 | 0.00 | 0.00 | 0.00 | 53 | 1019.8 |
| 20260509165539 | 19 | 356 | 4.8 | 9.7 | 0.00 | 0.00 | 0.00 | 51 | 1019.6 |
| 20260509165035 | 18 | 319 | 0.0 | 8.0 | 0.00 | 0.00 | 0.00 | 50 | 1019.6 |
| 20260509164531 | 18 | 9 | 6.4 | 11.3 | 0.00 | 0.00 | 0.00 | 52 | 1019.9 |
| 20260509164027 | 19 | 358 | 3.2 | 8.0 | 0.00 | 0.00 | 0.00 | 50 | 1019.6 |
| 20260509163525 | 19 | 346 | 3.2 | 4.8 | 0.00 | 0.00 | 0.00 | 51 | 1019.7 |
| 20260509163020 | 19 | 350 | 3.2 | 8.0 | 0.00 | 0.00 | 0.00 | 49 | 1019.8 |
| 20260509162518 | 19 | 326 | 3.2 | 6.4 | 0.00 | 0.00 | 0.00 | 51 | 1019.9 |
| 20260509162013 | 18 | 4 | 3.2 | 9.7 | 0.00 | 0.00 | 0.00 | 50 | 1019.8 |
| 20260509161510 | 18 | 4 | 4.8 | 11.3 | 0.00 | 0.00 | 0.00 | 55 | 1019.9 |
| 20260509161010 | 18 | 0 | 4.8 | 4.8 | 0.00 | 0.00 | 0.00 | 54 | 1019.9 |
| 20260509160506 | 18 | 309 | 4.8 | 9.7 | 0.00 | 0.00 | 0.00 | 58 | 1019.8 |
| 20260509160001 | 18 | 294 | 3.2 | 4.8 | 0.00 | 0.00 | 0.00 | 56 | 1019.8 |
| 20260509155458 | 18 | 352 | 3.2 | 6.4 | 0.00 | 0.00 | 0.00 | 53 | 1019.8 |
| 20260509154955 | 19 | 339 | 0.0 | 6.4 | 0.00 | 0.00 | 0.00 | 49 | 1019.7 |
| 20260509154451 | 18 | 191 | 0.0 | 6.4 | 0.00 | 0.00 | 0.00 | 49 | 1019.8 |
| 20260509153948 | 18 | 207 | 1.6 | 4.8 | 0.00 | 0.00 | 0.00 | 49 | 1019.7 |
| 20260509153445 | 18 | 248 | 0.0 | 12.9 | 0.00 | 0.00 | 0.00 | 52 | 1019.7 |
| 20260509152942 | 18 | 169 | 1.6 | 8.0 | 0.00 | 0.00 | 0.00 | 52 | 1019.7 |
| 20260509152438 | 18 | 180 | 1.6 | 4.8 | 0.00 | 0.00 | 0.00 | 52 | 1019.8 |
| 20260509151935 | 17 | 253 | 3.2 | 8.0 | 0.00 | 0.00 | 0.00 | 51 | 1019.8 |
| 20260509151431 | 17 | 228 | 0.0 | 6.4 | 0.00 | 0.00 | 0.00 | 52 | 1019.8 |
| 20260509150930 | 17 | 319 | 0.0 | 8.0 | 0.00 | 0.00 | 0.00 | 55 | 1019.5 |
| 20260509150426 | 17 | 176 | 0.0 | 11.3 | 0.00 | 0.00 | 0.00 | 54 | 1019.7 |
| 20260509145925 | 17 | 316 | 0.0 | 4.8 | 0.00 | 0.00 | 0.00 | 53 | 1019.6 |
| 20260509145425 | 17 | 290 | 8.0 | 9.7 | 0.00 | 0.00 | 0.00 | 56 | 1019.6 |
| 20260509144921 | 16 | 120 | 4.8 | 11.3 | 0.00 | 0.00 | 0.00 | 55 | 1019.6 |
| 20260509144418 | 16 | 129 | 8.0 | 9.7 | 0.00 | 0.00 | 0.00 | 55 | 1019.6 |
| 20260509143915 | 16 | 130 | 6.4 | 12.9 | 0.00 | 0.00 | 0.00 | 57 | 1019.4 |
| 20260509143412 | 16 | 142 | 0.0 | 16.1 | 0.00 | 0.00 | 0.00 | 59 | 1019.4 |
| 20260509142908 | 16 | 195 | 0.0 | 4.8 | 0.00 | 0.00 | 0.00 | 56 | 1019.3 |
| 20260509142405 | 16 | 112 | 3.2 | 9.7 | 0.00 | 0.00 | 0.00 | 56 | 1019.3 |
| 20260509141900 | 16 | 152 | 6.4 | 11.3 | 0.00 | 0.00 | 0.00 | 59 | 1019.5 |
| 20260509141358 | 16 | 118 | 6.4 | 8.0 | 0.00 | 0.00 | 0.00 | 57 | 1019.4 |
| 20260509140854 | 15 | 141 | 4.8 | 4.8 | 0.00 | 0.00 | 0.00 | 61 | 1019.5 |
| 20260509140351 | 15 | 159 | 6.4 | 8.0 | 0.00 | 0.00 | 0.00 | 61 | 1019.6 |
| 20260509135849 | 14 | 132 | 1.6 | 3.2 | 0.00 | 0.00 | 0.00 | 65 | 1019.5 |
| 20260509135346 | 13 | 157 | 3.2 | 8.0 | 0.00 | 0.00 | 0.00 | 66 | 1019.5 |
| 20260509134844 | 12 | 130 | 4.8 | 8.0 | 0.00 | 0.00 | 0.00 | 69 | 1019.4 |
| 20260509134341 | 12 | 120 | 4.8 | 8.0 | 0.00 | 0.00 | 0.00 | 70 | 1019.5 |
| 20260509133837 | 12 | 116 | 8.0 | 9.7 | 0.00 | 0.00 | 0.00 | 69 | 1019.5 |
| 20260509133334 | 12 | 113 | 4.8 | 8.0 | 0.00 | 0.00 | 0.00 | 70 | 1019.7 |
| 20260509132833 | 11 | 123 | 6.4 | 8.0 | 0.00 | 0.00 | 0.00 | 70 | 1019.6 |
| 20260509132331 | 11 | 126 | 8.0 | 12.9 | 0.00 | 0.00 | 0.00 | 73 | 1019.5 |
| 20260509131827 | 11 | 126 | 8.0 | 11.3 | 0.00 | 0.00 | 0.00 | 73 | 1019.3 |
| 20260509131324 | 11 | 118 | 4.8 | 12.9 | 0.00 | 0.00 | 0.00 | 72 | 1019.4 |
| 20260509130821 | 11 | 117 | 3.2 | 6.4 | 0.00 | 0.00 | 0.00 | 72 | 1019.6 |
| 20260509130316 | 11 | 121 | 9.7 | 9.7 | 0.00 | 0.00 | 0.00 | 72 | 1019.6 |
| 20260509125813 | 11 | 130 | 11.3 | 11.3 | 0.00 | 0.00 | 0.00 | 71 | 1019.4 |
| 20260509125310 | 11 | 148 | 4.8 | 9.7 | 0.00 | 0.00 | 0.00 | 71 | 1019.3 |
| 20260509124806 | 11 | 137 | 3.2 | 4.8 | 0.00 | 0.00 | 0.00 | 71 | 1019.4 |
| 20260509124303 | 11 | 147 | 0.0 | 4.8 | 0.00 | 0.00 | 0.00 | 70 | 1019.5 |
| 20260509123801 | 12 | 128 | 1.6 | 4.8 | 0.00 | 0.00 | 0.00 | 67 | 1019.5 |
| 20260509123258 | 12 | 180 | 0.0 | 8.0 | 0.00 | 0.00 | 0.00 | 68 | 1019.5 |
| 20260509122754 | 11 | 71 | 1.6 | 6.4 | 0.00 | 0.00 | 0.00 | 71 | 1019.3 |
| 20260509122251 | 11 | 154 | 3.2 | 11.3 | 0.00 | 0.00 | 0.00 | 71 | 1019.3 |
| 20260509121748 | 11 | 150 | 4.8 | 9.7 | 0.00 | 0.00 | 0.00 | 72 | 1019.4 |
| 20260509121245 | 11 | 95 | 4.8 | 8.0 | 0.00 | 0.00 | 0.00 | 71 | 1019.4 |
| 20260509120743 | 11 | 37 | 0.0 | 3.2 | 0.00 | 0.00 | 0.00 | 70 | 1019.2 |
| 20260509120240 | 11 | 18 | 0.0 | 6.4 | 0.00 | 0.00 | 0.00 | 69 | 1019.0 |
| 20260509115738 | 11 | 155 | 3.2 | 6.4 | 0.00 | 0.00 | 0.00 | 72 | 1019.3 |
| 20260509115235 | 10 | 307 | 0.0 | 4.8 | 0.00 | 0.00 | 0.00 | 72 | 1019.4 |
| 20260509114733 | 11 | 124 | 1.6 | 4.8 | 0.00 | 0.00 | 0.00 | 71 | 1019.3 |
| 20260509114232 | 11 | 60 | 3.2 | 6.4 | 0.00 | 0.00 | 0.00 | 71 | 1019.0 |
| 20260509113730 | 11 | 121 | 3.2 | 4.8 | 0.00 | 0.00 | 0.00 | 72 | 1019.2 |
| 20260509113227 | 11 | 188 | 3.2 | 6.4 | 0.00 | 0.00 | 0.00 | 70 | 1019.1 |
| 20260509112724 | 11 | 264 | 3.2 | 4.8 | 0.00 | 0.00 | 0.00 | 69 | 1019.3 |
| 20260509112221 | 12 | 77 | 3.2 | 4.8 | 0.00 | 0.00 | 0.00 | 68 | 1019.0 |
| 20260509111718 | 12 | 319 | 3.2 | 4.8 | 0.00 | 0.00 | 0.00 | 68 | 1019.3 |
| 20260509111215 | 12 | 178 | 1.6 | 11.3 | 0.00 | 0.00 | 0.00 | 68 | 1019.1 |
| 20260509110712 | 12 | 244 | 1.6 | 8.0 | 0.00 | 0.00 | 0.00 | 68 | 1019.2 |
| 20260509110209 | 12 | 276 | 4.8 | 11.3 | 0.00 | 0.00 | 0.00 | 67 | 1019.0 |
| 20260509105707 | 12 | 146 | 4.8 | 8.0 | 0.00 | 0.00 | 0.00 | 67 | 1019.0 |
| 20260509105204 | 12 | 166 | 4.8 | 11.3 | 0.00 | 0.00 | 0.00 | 67 | 1019.0 |
| 20260509104701 | 12 | 153 | 4.8 | 11.3 | 0.00 | 0.00 | 0.00 | 66 | 1019.0 |
| 20260509104158 | 12 | 109 | 8.0 | 16.1 | 0.00 | 0.00 | 0.00 | 67 | 1019.1 |
| 20260509103656 | 12 | 181 | 3.2 | 14.5 | 0.00 | 0.00 | 0.00 | 67 | 1019.3 |
| 20260509103153 | 12 | 151 | 4.8 | 8.0 | 0.00 | 0.00 | 0.00 | 68 | 1019.0 |
| 20260509102651 | 12 | 169 | 3.2 | 8.0 | 0.00 | 0.00 | 0.00 | 68 | 1019.2 |
| 20260509102148 | 12 | 137 | 4.8 | 4.8 | 0.00 | 0.00 | 0.00 | 67 | 1019.0 |
| 20260509101644 | 12 | 240 | 0.0 | 8.0 | 0.00 | 0.00 | 0.00 | 66 | 1018.9 |
| 20260509101141 | 12 | 0 | 4.8 | 9.7 | 0.00 | 0.00 | 0.00 | 67 | 1019.0 |
| 20260509100638 | 12 | 197 | 1.6 | 8.0 | 0.00 | 0.00 | 0.00 | 68 | 1018.9 |
| 20260509100135 | 12 | 199 | 0.0 | 4.8 | 0.00 | 0.00 | 0.00 | 67 | 1018.9 |
| 20260509095632 | 12 | 156 | 0.0 | 6.4 | 0.00 | 0.00 | 0.00 | 67 | 1018.7 |
| 20260509095129 | 12 | 211 | 3.2 | 6.4 | 0.00 | 0.00 | 0.00 | 67 | 1018.6 |
| 20260509094625 | 12 | 152 | 0.0 | 4.8 | 0.00 | 0.00 | 0.00 | 66 | 1018.7 |
| 20260509094123 | 12 | 274 | 3.2 | 6.4 | 0.00 | 0.00 | 0.00 | 65 | 1018.6 |
| 20260509093621 | 12 | 270 | 1.6 | 9.7 | 0.00 | 0.00 | 0.00 | 67 | 1018.8 |
| 20260509093118 | 12 | 203 | 1.6 | 11.3 | 0.00 | 0.00 | 0.00 | 68 | 1018.8 |
| 20260509092615 | 12 | 172 | 0.0 | 3.2 | 0.00 | 0.00 | 0.00 | 67 | 1018.7 |
| 20260509092114 | 12 | 207 | 1.6 | 3.2 | 0.00 | 0.00 | 0.00 | 66 | 1018.7 |
| 20260509091612 | 12 | 202 | 6.4 | 9.7 | 0.00 | 0.00 | 0.00 | 65 | 1018.5 |
| 20260509091107 | 13 | 238 | 3.2 | 6.4 | 0.00 | 0.00 | 0.00 | 64 | 1018.7 |
| 20260509090605 | 12 | 145 | 4.8 | 6.4 | 0.00 | 0.00 | 0.00 | 66 | 1018.5 |
| 20260509085600 | 12 | 185 | 1.6 | 6.4 | 0.00 | 0.00 | 0.00 | 66 | 1018.5 |
| 20260509085055 | 13 | 349 | 3.2 | 4.8 | 0.00 | 0.00 | 0.00 | 65 | 1018.3 |
| 20260509084553 | 12 | 334 | 4.8 | 8.0 | 0.00 | 0.00 | 0.00 | 66 | 1018.3 |
| 20260509084050 | 13 | 29 | 0.0 | 3.2 | 0.00 | 0.00 | 0.00 | 65 | 1018.2 |
| 20260509083548 | 13 | 234 | 0.0 | 6.4 | 0.00 | 0.00 | 0.00 | 63 | 1018.2 |
| 20260509083044 | 13 | 121 | 0.0 | 12.9 | 0.00 | 0.00 | 0.00 | 63 | 1017.9 |
| 20260509082541 | 13 | 347 | 3.2 | 8.0 | 0.00 | 0.00 | 0.00 | 63 | 1018.3 |
| 20260509082038 | 13 | 104 | 4.8 | 6.4 | 0.00 | 0.00 | 0.00 | 63 | 1018.2 |
| 20260509081535 | 13 | 224 | 3.2 | 17.7 | 0.00 | 0.00 | 0.00 | 63 | 1017.9 |
| 20260509081032 | 13 | 133 | 1.6 | 8.0 | 0.00 | 0.00 | 0.00 | 63 | 1018.3 |
| 20260509080530 | 12 | 338 | 11.3 | 14.5 | 0.00 | 0.00 | 0.00 | 66 | 1018.1 |
| 20260509080028 | 12 | 29 | 3.2 | 11.3 | 0.00 | 0.00 | 0.00 | 68 | 1018.3 |
| 20260509075525 | 12 | 15 | 4.8 | 6.4 | 0.00 | 0.00 | 0.00 | 65 | 1018.2 |
| 20260509075023 | 13 | 298 | 0.0 | 4.8 | 0.00 | 0.00 | 0.00 | 64 | 1018.2 |
| 20260509074520 | 13 | 97 | 1.6 | 6.4 | 0.00 | 0.00 | 0.00 | 63 | 1017.9 |
| 20260509074016 | 13 | 63 | 0.0 | 4.8 | 0.00 | 0.00 | 0.00 | 63 | 1017.7 |
| 20260509073513 | 13 | 122 | 3.2 | 6.4 | 0.00 | 0.00 | 0.00 | 63 | 1017.5 |
| 20260509073009 | 13 | 169 | 0.0 | 4.8 | 0.00 | 0.00 | 0.00 | 62 | 1017.6 |
| 20260509072506 | 13 | 103 | 1.6 | 8.0 | 0.00 | 0.00 | 0.00 | 60 | 1017.6 |
| 20260509072003 | 13 | 170 | 3.2 | 9.7 | 0.00 | 0.00 | 0.00 | 60 | 1017.5 |
| 20260509071459 | 13 | 81 | 3.2 | 6.4 | 0.00 | 0.00 | 0.00 | 60 | 1017.5 |
| 20260509070957 | 13 | 180 | 0.0 | 6.4 | 0.00 | 0.00 | 0.00 | 62 | 1017.5 |
| 20260509070454 | 13 | 57 | 1.6 | 4.8 | 0.00 | 0.00 | 0.00 | 61 | 1017.3 |
| 20260509065949 | 13 | 110 | 0.0 | 3.2 | 0.00 | 0.00 | 0.00 | 60 | 1017.5 |
| 20260509065446 | 13 | 336 | 0.0 | 6.4 | 0.00 | 0.00 | 0.00 | 60 | 1017.3 |
| 20260509064942 | 13 | 157 | 0.0 | 9.7 | 0.00 | 0.00 | 0.00 | 58 | 1017.5 |
| 20260509064440 | 14 | 136 | 0.0 | 4.8 | 0.00 | 0.00 | 0.00 | 57 | 1017.4 |
| 20260509063938 | 14 | 208 | 6.4 | 9.7 | 0.00 | 0.00 | 0.00 | 57 | 1017.3 |
| 20260509063438 | 14 | 191 | 0.0 | 8.0 | 0.00 | 0.00 | 0.00 | 57 | 1017.2 |
| 20260509062936 | 14 | 179 | 4.8 | 8.0 | 0.00 | 0.00 | 0.00 | 57 | 1017.3 |
| 20260509062433 | 14 | 144 | 3.2 | 11.3 | 0.00 | 0.00 | 0.00 | 56 | 1017.3 |
| 20260509061931 | 15 | 135 | 3.2 | 9.7 | 0.00 | 0.00 | 0.00 | 55 | 1017.3 |
| 20260509061428 | 15 | 177 | 3.2 | 8.0 | 0.00 | 0.00 | 0.00 | 54 | 1017.1 |
| 20260509060925 | 15 | 127 | 1.6 | 8.0 | 0.00 | 0.00 | 0.00 | 55 | 1017.1 |
| 20260509060422 | 15 | 305 | 0.0 | 9.7 | 0.00 | 0.00 | 0.00 | 55 | 1017.2 |
| 20260509055917 | 15 | 208 | 0.0 | 8.0 | 0.00 | 0.00 | 0.00 | 55 | 1016.9 |
| 20260509055412 | 15 | 144 | 0.0 | 11.3 | 0.00 | 0.00 | 0.00 | 53 | 1017.2 |
| 20260509054910 | 15 | 182 | 4.8 | 11.3 | 0.00 | 0.00 | 0.00 | 53 | 1017.0 |
| 20260509054407 | 15 | 205 | 3.2 | 11.3 | 0.00 | 0.00 | 0.00 | 52 | 1016.9 |
| 20260509053905 | 15 | 196 | 6.4 | 11.3 | 0.00 | 0.00 | 0.00 | 53 | 1016.9 |
| 20260509053402 | 15 | 214 | 3.2 | 8.0 | 0.00 | 0.00 | 0.00 | 52 | 1016.8 |
| 20260509052900 | 15 | 180 | 6.4 | 9.7 | 0.00 | 0.00 | 0.00 | 52 | 1017.0 |
| 20260509052357 | 15 | 271 | 6.4 | 11.3 | 0.00 | 0.00 | 0.00 | 51 | 1016.6 |
| 20260509051855 | 16 | 203 | 4.8 | 11.3 | 0.00 | 0.00 | 0.00 | 51 | 1016.6 |
| 20260509051353 | 16 | 221 | 6.4 | 9.7 | 0.00 | 0.00 | 0.00 | 50 | 1016.4 |
| 20260509050849 | 16 | 251 | 3.2 | 11.3 | 0.00 | 0.00 | 0.00 | 49 | 1016.3 |
| 20260509050346 | 16 | 180 | 3.2 | 9.7 | 0.00 | 0.00 | 0.00 | 49 | 1016.5 |
| 20260509045843 | 16 | 184 | 3.2 | 8.0 | 0.00 | 0.00 | 0.00 | 49 | 1016.3 |
| 20260509045340 | 16 | 135 | 0.0 | 4.8 | 0.00 | 0.00 | 0.00 | 49 | 1016.0 |
| 20260509044837 | 16 | 214 | 4.8 | 8.0 | 0.00 | 0.00 | 0.00 | 47 | 1016.0 |
| 20260509044335 | 17 | 220 | 6.4 | 11.3 | 0.00 | 0.00 | 0.00 | 46 | 1015.8 |
| 20260509043831 | 17 | 247 | 8.0 | 14.5 | 0.00 | 0.00 | 0.00 | 45 | 1015.9 |
| 20260509043327 | 17 | 217 | 0.0 | 11.3 | 0.00 | 0.00 | 0.00 | 45 | 1015.8 |
| 20260509042823 | 17 | 202 | 3.2 | 11.3 | 0.00 | 0.00 | 0.00 | 45 | 1015.8 |
| 20260509042319 | 17 | 226 | 11.3 | 12.9 | 0.00 | 0.00 | 0.00 | 43 | 1015.6 |
| 20260509041816 | 17 | 232 | 3.2 | 12.9 | 0.00 | 0.00 | 0.00 | 43 | 1015.6 |
| 20260509041313 | 17 | 243 | 6.4 | 14.5 | 0.00 | 0.00 | 0.00 | 43 | 1015.5 |
| 20260509040812 | 17 | 242 | 3.2 | 9.7 | 0.00 | 0.00 | 0.00 | 42 | 1015.3 |
| 20260509040308 | 17 | 241 | 6.4 | 14.5 | 0.00 | 0.00 | 0.00 | 42 | 1015.2 |
| 20260509035806 | 17 | 220 | 3.2 | 8.0 | 0.00 | 0.00 | 0.00 | 43 | 1015.5 |
| 20260509035306 | 17 | 218 | 3.2 | 8.0 | 0.00 | 0.00 | 0.00 | 44 | 1015.1 |
| 20260509034759 | 17 | 221 | 3.2 | 6.4 | 0.00 | 0.00 | 0.00 | 44 | 1015.1 |
| 20260509034257 | 17 | 250 | 4.8 | 8.0 | 0.00 | 0.00 | 0.00 | 42 | 1015.1 |
| 20260509033753 | 17 | 58 | 0.0 | 6.4 | 0.00 | 0.00 | 0.00 | 44 | 1014.7 |
| 20260509033251 | 17 | 293 | 1.6 | 6.4 | 0.00 | 0.00 | 0.00 | 43 | 1014.9 |
| 20260509032747 | 17 | 346 | 3.2 | 6.4 | 0.00 | 0.00 | 0.00 | 41 | 1015.0 |
| 20260509032244 | 18 | 239 | 1.6 | 9.7 | 0.00 | 0.00 | 0.00 | 39 | 1014.3 |
| 20260509031742 | 18 | 239 | 4.8 | 9.7 | 0.00 | 0.00 | 0.00 | 37 | 1014.3 |
| 20260509031239 | 18 | 202 | 4.8 | 12.9 | 0.00 | 0.00 | 0.00 | 37 | 1014.1 |
| 20260509030737 | 19 | 227 | 8.0 | 12.9 | 0.00 | 0.00 | 0.00 | 36 | 1013.8 |
| 20260509030235 | 19 | 201 | 4.8 | 11.3 | 0.00 | 0.00 | 0.00 | 36 | 1014.0 |
| 20260509025731 | 20 | 232 | 11.3 | 16.1 | 0.00 | 0.00 | 0.00 | 34 | 1013.6 |
| 20260509025227 | 20 | 242 | 6.4 | 16.1 | 0.00 | 0.00 | 0.00 | 33 | 1013.5 |
| 20260509024722 | 20 | 229 | 3.2 | 12.9 | 0.00 | 0.00 | 0.00 | 34 | 1013.6 |
| 20260509024218 | 20 | 241 | 4.8 | 16.1 | 0.00 | 0.00 | 0.00 | 33 | 1013.6 |
| 20260509023716 | 20 | 221 | 3.2 | 16.1 | 0.00 | 0.00 | 0.00 | 33 | 1013.5 |
| 20260509023213 | 20 | 235 | 4.8 | 14.5 | 0.00 | 0.00 | 0.00 | 33 | 1013.4 |
| 20260509022709 | 21 | 246 | 6.4 | 24.1 | 0.00 | 0.00 | 0.00 | 32 | 1013.5 |
| 20260509022207 | 21 | 228 | 4.8 | 16.1 | 0.00 | 0.00 | 0.00 | 31 | 1013.5 |
| 20260509021704 | 21 | 232 | 11.3 | 14.5 | 0.00 | 0.00 | 0.00 | 30 | 1013.3 |
| 20260509021201 | 21 | 233 | 4.8 | 12.9 | 0.00 | 0.00 | 0.00 | 30 | 1013.2 |
| 20260509020659 | 21 | 244 | 4.8 | 14.5 | 0.00 | 0.00 | 0.00 | 30 | 1013.3 |
| 20260509020156 | 22 | 230 | 9.7 | 14.5 | 0.00 | 0.00 | 0.00 | 28 | 1013.1 |
| 20260509015654 | 22 | 231 | 3.2 | 12.9 | 0.00 | 0.00 | 0.00 | 29 | 1013.1 |
| 20260509015152 | 22 | 262 | 3.2 | 17.7 | 0.00 | 0.00 | 0.00 | 28 | 1013.1 |
| 20260509014648 | 22 | 244 | 4.8 | 14.5 | 0.00 | 0.00 | 0.00 | 27 | 1013.1 |
| 20260509014144 | 22 | 233 | 8.0 | 14.5 | 0.00 | 0.00 | 0.00 | 26 | 1013.3 |
| 20260509013641 | 22 | 233 | 8.0 | 16.1 | 0.00 | 0.00 | 0.00 | 26 | 1013.3 |
| 20260509013137 | 22 | 229 | 4.8 | 19.3 | 0.00 | 0.00 | 0.00 | 27 | 1013.1 |
| 20260509012634 | 23 | 230 | 8.0 | 17.7 | 0.00 | 0.00 | 0.00 | 26 | 1013.3 |
| 20260509012131 | 23 | 245 | 14.5 | 16.1 | 0.00 | 0.00 | 0.00 | 25 | 1013.1 |
| 20260509011629 | 23 | 243 | 12.9 | 14.5 | 0.00 | 0.00 | 0.00 | 25 | 1013.2 |
| 20260509011126 | 23 | 252 | 11.3 | 19.3 | 0.00 | 0.00 | 0.00 | 25 | 1013.2 |
| 20260509010623 | 23 | 232 | 11.3 | 16.1 | 0.00 | 0.00 | 0.00 | 24 | 1013.2 |
| 20260509010120 | 23 | 247 | 4.8 | 17.7 | 0.00 | 0.00 | 0.00 | 25 | 1013.4 |
| 20260509005618 | 23 | 240 | 4.8 | 17.7 | 0.00 | 0.00 | 0.00 | 23 | 1013.3 |
| 20260509005113 | 23 | 250 | 4.8 | 14.5 | 0.00 | 0.00 | 0.00 | 24 | 1013.4 |
| 20260509004610 | 23 | 228 | 6.4 | 14.5 | 0.00 | 0.00 | 0.00 | 22 | 1013.4 |
| 20260509004107 | 23 | 231 | 6.4 | 17.7 | 0.00 | 0.00 | 0.00 | 21 | 1013.2 |
| 20260509003605 | 23 | 245 | 9.7 | 22.5 | 0.00 | 0.00 | 0.00 | 22 | 1013.2 |
| 20260509003102 | 23 | 226 | 6.4 | 20.9 | 0.00 | 0.00 | 0.00 | 23 | 1013.3 |
| 20260509002600 | 23 | 230 | 11.3 | 20.9 | 0.00 | 0.00 | 0.00 | 23 | 1013.3 |
| 20260509002057 | 23 | 233 | 16.1 | 16.1 | 0.00 | 0.00 | 0.00 | 22 | 1013.4 |
| 20260509001554 | 23 | 232 | 6.4 | 22.5 | 0.00 | 0.00 | 0.00 | 21 | 1013.2 |
| 20260509001050 | 24 | 249 | 4.8 | 19.3 | 0.00 | 0.00 | 0.00 | 20 | 1013.0 |
| 20260509000549 | 24 | 222 | 8.0 | 16.1 | 0.00 | 0.00 | 0.00 | 21 | 1013.3 |
| 20260509000044 | 24 | 248 | 8.0 | 14.5 | 0.00 | 0.00 | 0.00 | 21 | 1013.3 |
| 20260508235542 | 24 | 240 | 11.3 | 22.5 | 0.00 | 0.00 | 0.00 | 20 | 1013.2 |
| 20260508235038 | 24 | 246 | 9.7 | 24.1 | 0.00 | 0.00 | 0.00 | 20 | 1013.0 |
| 20260508234536 | 23 | 234 | 16.1 | 25.7 | 0.00 | 0.00 | 0.00 | 20 | 1013.1 |
| 20260508234032 | 24 | 219 | 11.3 | 25.7 | 0.00 | 0.00 | 0.00 | 20 | 1013.2 |
| 20260508233532 | 23 | 223 | 9.7 | 20.9 | 0.00 | 0.00 | 0.00 | 20 | 1013.5 |
| 20260508233029 | 24 | 224 | 16.1 | 20.9 | 0.00 | 0.00 | 0.00 | 20 | 1013.5 |
| 20260508232525 | 25 | 230 | 4.8 | 14.5 | 0.00 | 0.00 | 0.00 | 21 | 1013.7 |
| 20260508232022 | 24 | 240 | 6.4 | 19.3 | 0.00 | 0.00 | 0.00 | 16 | 1013.6 |
| 20260508231520 | 23 | 254 | 6.4 | 11.3 | 0.00 | 0.00 | 0.00 | 19 | 1013.4 |
| 20260508231017 | 23 | 233 | 9.7 | 20.9 | 0.00 | 0.00 | 0.00 | 17 | 1013.4 |
| 20260508230514 | 25 | 234 | 6.4 | 19.3 | 0.00 | 0.00 | 0.00 | 16 | 1013.5 |
| 20260508230010 | 25 | 254 | 4.8 | 17.7 | 0.00 | 0.00 | 0.00 | 20 | 1013.5 |
| 20260508225508 | 24 | 254 | 8.0 | 20.9 | 0.00 | 0.00 | 0.00 | 18 | 1013.3 |
| 20260508225004 | 24 | 245 | 17.7 | 20.9 | 0.00 | 0.00 | 0.00 | 14 | 1013.4 |
| 20260508224502 | 24 | 249 | 3.2 | 17.7 | 0.00 | 0.00 | 0.00 | 15 | 1013.5 |
| 20260508223959 | 23 | 229 | 4.8 | 11.3 | 0.00 | 0.00 | 0.00 | 16 | 1013.6 |
| 20260508223457 | 25 | 250 | 3.2 | 19.3 | 0.00 | 0.00 | 0.00 | 16 | 1013.4 |
| 20260508222954 | 25 | 231 | 4.8 | 17.7 | 0.00 | 0.00 | 0.00 | 17 | 1013.5 |
| 20260508222451 | 24 | 240 | 3.2 | 16.1 | 0.00 | 0.00 | 0.00 | 18 | 1013.5 |
| 20260508221947 | 24 | 252 | 4.8 | 20.9 | 0.00 | 0.00 | 0.00 | 16 | 1013.5 |
| 20260508221443 | 25 | 228 | 12.9 | 16.1 | 0.00 | 0.00 | 0.00 | 19 | 1013.7 |
| 20260508220940 | 25 | 241 | 14.5 | 19.3 | 0.00 | 0.00 | 0.00 | 18 | 1013.6 |
| 20260508220437 | 25 | 243 | 8.0 | 17.7 | 0.00 | 0.00 | 0.00 | 21 | 1013.5 |
| 20260508215933 | 25 | 239 | 14.5 | 22.5 | 0.00 | 0.00 | 0.00 | 15 | 1013.6 |
| 20260508215430 | 25 | 209 | 8.0 | 17.7 | 0.00 | 0.00 | 0.00 | 19 | 1013.5 |
| 20260508214926 | 25 | 223 | 8.0 | 20.9 | 0.00 | 0.00 | 0.00 | 21 | 1013.6 |
| 20260508214425 | 24 | 216 | 6.4 | 14.5 | 0.00 | 0.00 | 0.00 | 25 | 1013.5 |
| 20260508213920 | 23 | 238 | 8.0 | 19.3 | 0.00 | 0.00 | 0.00 | 24 | 1013.6 |
| 20260508213418 | 24 | 248 | 8.0 | 14.5 | 0.00 | 0.00 | 0.00 | 27 | 1013.8 |
| 20260508212913 | 23 | 232 | 8.0 | 16.1 | 0.00 | 0.00 | 0.00 | 25 | 1013.6 |
| 20260508212410 | 23 | 238 | 4.8 | 11.3 | 0.00 | 0.00 | 0.00 | 25 | 1013.7 |
| 20260508211906 | 23 | 259 | 4.8 | 19.3 | 0.00 | 0.00 | 0.00 | 27 | 1014.0 |
| 20260508211401 | 23 | 252 | 4.8 | 11.3 | 0.00 | 0.00 | 0.00 | 28 | 1014.0 |
| 20260508210859 | 23 | 216 | 1.6 | 8.0 | 0.00 | 0.00 | 0.00 | 31 | 1014.1 |
| 20260508210355 | 23 | 259 | 3.2 | 12.9 | 0.00 | 0.00 | 0.00 | 31 | 1014.4 |
| 20260508205852 | 22 | 247 | 4.8 | 11.3 | 0.00 | 0.00 | 0.00 | 35 | 1014.3 |
| 20260508205349 | 23 | 244 | 3.2 | 17.7 | 0.00 | 0.00 | 0.00 | 35 | 1014.0 |
| 20260508204845 | 22 | 241 | 6.4 | 14.5 | 0.00 | 0.00 | 0.00 | 34 | 1013.7 |
| 20260508204342 | 23 | 262 | 3.2 | 9.7 | 0.00 | 0.00 | 0.00 | 37 | 1013.7 |
| 20260508203838 | 23 | 276 | 6.4 | 8.0 | 0.00 | 0.00 | 0.00 | 35 | 1013.7 |
| 20260508203334 | 23 | 232 | 9.7 | 17.7 | 0.00 | 0.00 | 0.00 | 30 | 1013.7 |
| 20260508202830 | 23 | 223 | 9.7 | 19.3 | 0.00 | 0.00 | 0.00 | 29 | 1013.6 |
| 20260508202328 | 23 | 247 | 8.0 | 16.1 | 0.00 | 0.00 | 0.00 | 28 | 1013.7 |
| 20260508201825 | 25 | 255 | 1.6 | 11.3 | 0.00 | 0.00 | 0.00 | 30 | 1013.5 |
| 20260508201322 | 24 | 197 | 8.0 | 14.5 | 0.00 | 0.00 | 0.00 | 30 | 1013.6 |
| 20260508200818 | 25 | 267 | 4.8 | 12.9 | 0.00 | 0.00 | 0.00 | 31 | 1013.7 |
| 20260508200315 | 24 | 211 | 11.3 | 12.9 | 0.00 | 0.00 | 0.00 | 31 | 1013.5 |
| 20260508195811 | 25 | 225 | 4.8 | 9.7 | 0.00 | 0.00 | 0.00 | 34 | 1013.8 |
| 20260508195307 | 24 | 261 | 3.2 | 9.7 | 0.00 | 0.00 | 0.00 | 35 | 1013.7 |
| 20260508194804 | 23 | 227 | 4.8 | 12.9 | 0.00 | 0.00 | 0.00 | 32 | 1014.0 |
| 20260508194301 | 23 | 229 | 6.4 | 12.9 | 0.00 | 0.00 | 0.00 | 29 | 1013.8 |
| 20260508193758 | 22 | 217 | 6.4 | 9.7 | 0.00 | 0.00 | 0.00 | 31 | 1014.0 |